Theta_e
295 295 295 296 296 296 296 296 297 299 300 301 305 310 313 316 318 319 321 321 321 320 320 320 319 318 318 317 318 317 317 315 300 293 293 291 290 288 289 289 290 291 292
295 295 295 296 296 296 296 296 297 298 299 301 305 309 314 315 317 320 320 320 320 319 318 319 318 317 317 317 316 315 316 313 306 293 290 289 289 287 288 289 290 291 292
295 296 296 296 296 296 296 296 297 298 299 302 304 307 311 313 316 318 319 318 318 317 316 316 314 313 313 313 312 313 312 310 308 301 291 290 287 287 288 289 290 291 292
295 295 296 296 296 296 296 296 298 299 300 303 305 307 310 312 314 315 315 315 314 313 312 312 312 312 311 310 310 310 308 307 305 299 292 289 287 286 288 288 290 291 291
295 295 296 296 296 297 297 297 297 299 300 302 304 306 307 310 311 313 313 313 312 310 308 309 309 308 309 308 309 309 309 307 302 297 290 287 287 286 287 288 290 291 291
295 294 295 297 296 296 296 298 298 298 298 301 303 305 306 307 307 309 311 309 307 307 306 303 303 304 305 302 301 302 303 305 301 295 290 287 287 287 288 290 291 290 290
295 295 294 296 297 297 296 297 298 299 300 300 301 302 302 302 305 306 306 306 305 304 303 301 299 297 296 294 293 295 297 296 298 297 294 289 288 288 288 290 290 289 290
295 295 294 294 296 297 297 297 297 298 300 301 301 302 302 301 304 304 305 304 303 301 299 297 295 293 292 292 292 292 291 291 291 291 290 290 290 289 289 289 289 290 290
294 295 294 293 294 294 295 295 297 298 298 299 300 301 303 302 302 303 303 301 300 299 297 296 295 293 291 291 290 290 290 290 290 290 290 289 289 289 288 288 287 291 289
295 294 292 292 294 294 294 294 294 295 297 298 297 298 300 302 302 303 301 299 298 296 294 292 291 291 290 290 289 290 289 288 289 289 288 288 288 288 288 288 289 290 287
295 294 293 291 291 295 295 294 293 293 293 294 296 296 296 297 296 296 298 298 296 294 292 291 290 289 289 289 288 288 289 288 287 287 287 287 287 287 287 287 288 289 289
294 294 294 291 290 291 293 294 294 294 292 292 292 292 292 292 293 292 293 293 292 292 291 290 289 289 288 288 288 288 287 287 286 286 286 286 286 286 287 287 287 288 288
292 292 293 292 291 290 290 291 293 293 293 292 291 291 292 291 291 291 291 290 291 291 290 289 289 289 288 287 287 287 287 286 286 287 287 287 287 287 287 286 286 286 286
291 290 291 291 291 289 289 289 289 290 291 291 291 292 292 291 290 289 289 289 289 289 289 288 287 287 287 287 286 286 285 285 286 286 287 286 286 286 286 286 285 285 286
291 290 290 290 289 289 289 289 289 289 289 289 290 291 290 291 291 290 289 288 288 288 287 287 286 286 285 285 285 285 285 284 284 284 284 285 285 285 284 285 285 285 286
291 290 290 290 289 289 289 289 288 288 288 288 288 288 289 289 289 289 289 288 287 286 286 286 286 285 284 283 282 282 282 283 283 283 284 284 285 285 284 283 284 285 285
293 292 291 290 289 289 289 288 288 289 288 288 288 288 288 288 288 288 288 288 287 285 285 285 286 285 285 284 284 283 283 285 285 284 284 283 283 284 283 282 283 283 283
295 294 292 292 291 290 289 289 289 288 288 289 289 289 288 288 287 287 287 286 286 285 285 284 285 285 285 285 285 285 285 284 284 285 284 284 285 284 283 282 282 282 282
295 295 294 293 292 292 291 290 289 289 288 289 290 288 288 288 287 286 285 286 286 285 285 285 284 285 286 285 285 285 284 284 284 283 283 282 283 283 283 283 282 282 282
295 294 293 293 292 291 290 290 289 289 288 288 288 289 289 288 286 286 285 285 285 285 285 285 286 286 286 286 286 286 285 284 284 283 284 283 283 283 283 282 282 281 282
294 294 294 292 291 290 290 289 289 289 288 288 288 289 289 288 288 287 286 286 285 285 285 285 285 285 286 286 285 285 285 285 285 284 284 284 283 283 283 282 282 282 281
293 294 293 293 293 291 290 289 289 288 288 288 288 288 288 287 287 287 287 287 286 286 286 286 286 286 286 286 286 286 285 285 285 285 284 283 283 282 282 282 281 281 280
290 291 291 291 290 289 289 288 288 288 288 287 287 287 287 287 287 287 287 287 287 286 286 286 286 286 286 286 286 286 285 286 286 286 285 284 283 282 281 281 280 280 280
288 288 288 288 288 288 288 288 287 287 287 287 287 286 286 286 286 286 286 286 286 285 285 285 285 285 285 285 285 284 284 284 285 285 285 284 284 283 282 281 280 280 280
286 286 286 286 286 286 286 286 286 286 286 286 286 285 285 285 285 285 285 285 285 285 285 284 284 284 284 284 284 284 284 284 284 284 284 284 283 283 283 281 281 281 280
283 283 284 284 284 284 285 285 285 285 285 285 285 285 285 285 285 285 285 284 284 284 284 284 284 284 284 284 284 283 283 283 283 283 283 283 283 282 282 281 281 280 280
Wind_Speed
6 6 6 7 7 7 7 6 5 5 5 3 4 6 5 7 8 10 11 13 10 11 9 8 7 7 12 6 6 7 10 11 9 4 9 13 11 10 11 10 11 14 16
5 5 7 8 8 8 7 7 6 6 4 2 3 4 7 9 11 14 15 15 14 15 12 10 9 7 8 6 7 9 12 11 9 11 14 10 11 11 12 11 12 13 15
4 5 7 8 9 9 8 6 6 7 5 4 3 6 7 9 13 16 15 15 15 13 11 10 9 9 8 8 9 10 10 10 11 16 14 13 15 13 14 12 12 13 15
3 4 7 8 9 8 8 7 8 6 5 6 7 8 9 10 11 12 12 14 14 12 12 11 11 10 10 10 9 9 10 11 12 19 17 19 19 17 15 17 16 15 16
2 4 6 7 8 8 9 9 8 8 8 8 8 9 10 12 12 13 13 13 12 14 13 12 10 8 7 7 7 10 11 13 17 17 19 17 19 23 21 16 20 17 16
1 2 3 5 7 9 10 11 10 10 10 11 12 12 13 14 11 11 13 15 15 15 15 12 10 8 8 8 8 9 8 12 17 16 13 18 21 24 20 25 24 21 5
3 1 3 4 5 8 9 11 12 13 13 15 15 15 17 16 14 13 13 13 13 12 11 10 10 9 8 8 8 9 11 10 10 10 16 19 25 27 26 27 23 9 8
5 3 3 2 4 5 6 8 10 11 12 13 14 14 15 15 12 10 10 10 11 11 10 9 8 8 8 7 8 9 10 10 9 9 12 14 13 21 24 25 21 13 21
10 7 5 5 3 3 3 4 6 7 9 10 11 11 11 11 11 10 9 10 10 9 8 7 6 6 8 8 8 10 11 11 11 12 12 14 17 18 22 21 21 26 8
11 9 7 6 6 4 3 3 2 4 6 7 8 9 9 9 11 10 9 8 9 8 7 6 6 5 7 8 9 11 13 14 13 13 14 16 17 17 17 18 22 26 8
10 9 7 7 6 6 5 3 3 4 4 5 5 6 6 6 6 7 10 10 9 10 8 8 7 7 8 8 9 9 8 15 16 15 15 15 15 16 17 17 21 19 13
13 12 10 8 7 7 7 7 6 5 4 5 6 7 7 7 6 7 7 8 9 9 10 8 9 10 8 9 11 10 10 14 15 15 14 14 14 15 17 17 19 18 16
15 16 15 12 12 10 9 9 9 9 9 8 8 9 8 8 8 8 8 8 8 9 9 9 10 11 11 11 11 11 12 16 16 15 15 14 13 13 14 14 14 15 13
16 16 16 16 15 14 12 11 11 11 12 12 13 14 12 12 11 11 11 10 11 11 11 11 11 11 10 10 12 12 13 15 16 16 16 14 15 15 15 15 15 13 12
18 17 18 17 17 16 16 15 15 14 14 15 15 13 14 15 13 12 12 12 11 10 12 14 15 14 13 13 12 13 15 16 16 15 16 18 18 16 17 17 14 14 11
21 21 21 20 20 19 18 18 19 18 17 18 17 17 15 15 13 10 12 14 12 13 16 18 19 18 15 13 15 14 14 16 16 16 18 19 20 20 20 21 19 18 17
24 23 22 22 22 22 22 22 23 18 19 21 22 21 20 18 17 15 14 14 14 15 18 20 23 23 23 21 20 18 20 21 21 20 18 21 21 20 22 25 24 23 23
24 24 23 23 22 23 23 24 23 23 23 24 23 23 23 23 22 20 18 16 18 20 24 24 26 27 27 26 24 24 23 22 22 22 23 23 23 25 25 27 28 29 28
23 23 24 23 23 23 22 23 23 24 26 27 25 22 21 21 22 23 21 27 27 26 27 26 23 27 29 27 28 27 26 26 24 22 21 22 24 25 30 30 30 30 30
18 18 17 18 20 22 22 22 23 25 27 26 25 26 22 20 23 25 27 31 31 30 29 30 29 28 25 24 25 25 26 27 27 28 29 27 27 25 28 29 30 30 31
14 13 14 15 17 19 20 23 23 24 25 25 26 22 20 22 28 30 30 29 33 32 33 31 31 32 31 29 27 26 27 27 28 29 30 30 31 32 30 30 30 30 29
13 11 13 14 14 17 19 21 20 21 23 24 25 22 18 19 23 26 28 29 30 31 31 30 30 29 28 27 26 26 27 28 28 28 29 30 29 31 31 31 32 32 31
10 10 11 12 13 13 14 16 17 18 19 21 21 21 18 18 22 24 25 25 25 25 25 25 25 27 26 26 26 26 27 27 27 26 27 27 27 29 30 30 30 29 29
3 6 10 10 9 11 12 13 14 14 15 16 17 17 17 16 17 20 20 19 19 20 21 21 21 21 23 21 22 23 24 25 24 24 24 25 26 26 27 29 29 30 28
2 2 5 6 8 9 10 10 10 11 11 12 11 11 12 12 12 13 13 13 14 14 16 16 16 17 18 19 22 22 21 22 22 21 21 23 26 26 27 28 29 29 29
4 3 3 3 4 4 6 7 7 7 6 6 7 8 7 8 8 9 9 10 11 12 13 13 13 14 14 15 16 16 17 19 20 21 23 25 26 26 27 28 29 28 27
Wind_Direction
17 16 34 28 28 30 30 24 36 55 32 37 84 83 111 159 187 200 178 173 174 175 179 180 197 207 201 195 199 197 184 176 122 128 140 152 137 128 123 109 97 89 89
25 23 34 33 35 39 31 27 38 60 43 20 90 111 115 123 140 174 177 160 153 160 168 174 177 194 191 189 191 182 178 173 144 125 144 146 143 136 133 120 105 99 93
43 38 42 42 46 40 39 41 51 61 52 64 95 103 117 119 132 131 138 144 157 161 168 169 173 170 160 155 158 158 159 167 159 159 145 157 148 152 143 128 115 112 102
53 49 48 41 46 52 56 63 73 83 93 87 89 92 107 114 123 130 136 140 146 150 151 154 151 155 156 155 157 161 163 156 151 149 143 153 157 158 158 145 131 125 111
71 73 69 56 56 63 69 73 86 97 101 112 110 105 112 121 126 132 134 133 141 137 134 135 139 138 136 144 159 163 168 162 153 151 147 158 164 165 168 154 138 127 114
152 67 78 72 71 75 83 91 95 96 104 115 118 115 110 106 113 129 135 136 137 132 127 121 123 133 146 155 162 161 168 169 165 157 164 165 172 176 170 159 143 133 112
170 89 53 92 82 79 89 95 97 99 108 109 111 117 111 111 119 124 130 130 132 129 125 128 129 132 140 147 150 154 158 162 172 181 178 175 175 179 173 167 164 167 140
177 158 149 89 102 94 94 96 102 107 112 113 115 114 115 113 122 124 129 136 134 127 132 135 142 138 140 144 156 151 144 152 165 170 173 166 173 178 187 184 178 161 151
182 182 180 173 153 131 111 101 108 116 114 114 117 124 129 127 131 133 143 141 129 135 152 156 159 161 162 160 167 153 141 133 140 150 159 163 159 165 178 189 179 162 153
191 185 181 176 171 165 136 127 128 143 140 134 131 137 144 153 162 162 158 161 163 163 161 167 169 163 161 173 183 174 159 152 152 154 157 160 165 168 172 183 180 172 145
191 188 188 182 180 179 182 188 167 164 167 159 153 151 161 174 183 182 178 189 190 182 182 174 176 171 175 180 185 182 181 161 157 162 159 162 170 174 173 175 183 196 205
195 199 200 198 195 197 195 192 203 206 204 194 187 184 183 188 199 204 208 207 202 203 193 185 183 183 192 189 183 183 180 169 168 168 164 164 174 184 193 199 206 214 219
204 205 206 207 210 209 211 212 205 209 216 221 229 234 224 221 218 216 212 217 222 216 214 201 194 198 201 199 197 198 191 187 186 185 186 189 190 195 200 201 206 211 218
216 216 214 216 216 221 221 218 224 232 228 227 231 238 244 247 244 238 228 222 224 216 210 203 203 203 203 205 193 194 195 201 206 206 205 200 203 203 200 199 193 187 191
218 222 223 225 227 228 233 237 238 240 242 244 246 249 246 253 261 259 249 243 236 228 212 202 200 201 198 200 203 211 208 209 219 218 218 216 211 211 208 208 208 204 203
219 221 225 229 231 235 240 245 247 248 246 248 248 248 248 250 249 251 251 245 235 223 210 214 218 220 219 219 221 221 226 227 229 233 228 227 228 223 219 217 218 222 224
230 233 232 232 235 238 240 244 253 257 257 253 253 252 253 253 246 238 234 229 224 205 222 233 237 234 237 239 235 234 235 236 235 235 236 235 230 234 228 224 226 227 228
233 239 240 240 241 244 246 250 255 257 257 257 257 255 253 252 250 242 229 217 209 214 226 236 238 242 244 245 244 241 242 240 235 236 234 233 233 231 231 232 232 234 236
232 235 241 245 248 250 253 257 258 260 262 265 268 262 260 255 249 242 233 228 222 215 219 227 236 245 248 252 256 257 256 254 251 247 245 241 241 232 233 236 239 239 240
232 240 246 249 249 251 253 252 255 259 263 264 265 265 265 250 236 229 228 230 234 236 239 241 244 248 254 256 258 261 262 260 257 254 253 251 251 248 243 243 243 243 242
223 232 240 245 251 254 257 259 262 264 267 268 271 273 271 257 251 247 243 238 241 241 247 251 253 257 259 260 260 259 259 261 260 259 257 255 253 249 247 248 250 250 248
222 214 227 236 245 256 262 266 268 270 273 273 278 279 274 258 256 256 256 256 257 258 258 258 262 264 265 263 263 260 258 260 261 261 259 257 255 256 254 251 248 246 246
252 251 243 243 250 257 260 263 264 269 275 280 284 286 280 266 262 264 266 269 270 268 267 265 266 268 268 268 266 264 262 263 266 269 266 262 259 256 254 250 250 244 240
262 278 278 274 271 268 268 270 272 272 277 281 286 289 288 284 279 277 281 285 285 280 276 273 271 271 273 271 268 265 266 267 267 268 268 265 264 260 255 253 251 248 244
340 281 282 295 295 291 290 288 286 288 288 288 289 290 288 290 285 286 288 286 282 283 283 281 278 275 272 270 270 271 271 269 269 266 263 264 262 260 260 252 248 245 245
18 17 16 357 338 330 315 310 310 306 296 296 301 304 308 302 300 295 297 298 294 290 290 290 289 283 280 274 272 273 273 270 268 266 267 266 262 258 254 252 250 245 242